Location: San Gennaro Vesuviano
(40.8833°N, 14.5333°E)
Time: 22:24:50
(UTC+00:00)

Cosmos 2151 - Pass Details

Date: 22 April 2021
Orbit: 582 x 600 km, 82.5° (Epoch: 10 May)

Event Time Altitude Azimuth Distance (km) Brightness Sun altitude
Rises 19:36:19 0° 352° (N) 2,856 7.1 -18.9°
Reaches altitude 10° 19:38:33 10° 353° (N) 1,947 6.2 -19.2°
Maximum altitude 19:42:52 85° 80° (E) 605 2.9 -19.8°
Enters shadow 19:44:10 44° 168° (SSE) 824 3.3 -20.0°
